THORAD AGENA D DEB, 42534

Orbit data source: Space-Track

THORAD AGENA D DEB, 42534 is space debris in SSO originally from a launch on Wed, 08 Apr 1970 UTC launched from the Air Force Western Test Range (AFWTR). Debris objects in space refer to the collection of defunct objects orbiting the Earth. Examples of debris include non-operational satellites, rocket bodies, and fragments generated from explosions, collisions, or faulty payload assembly.

Loading next visibility...
Identifier
42534, 1970-025SQ
Orbit
SSO
Country
Flag of USUS
Related business
Manufacturer
Unknown
Mission
Spacecraft
Bus & Motor
Unknown
Mass
Unknown
Launch date (UTC)
1970-04-08 (56 years ago)
Launch vehicle
Unknown
Launch site
Air Force Western Test Range (AFWTR)
Object type
Payload
Rocket body
Debris
Shape & HBR
Unknown shape, 0.1 m
Radar Cross Section
Small (<0.1 m²)

Expand to show TLE details & history
Last TLE update: 3 days ago

TLE from 3 days ago
0 THORAD AGENA D DEB
1 42534U 70025SQ  25296.68952978  .00000527  00000-0  18765-2 0  9993
2 42534 101.7360  21.4371 0194351 226.3329 132.1515 12.95533511557703
Epoch: 2025-10-23T16:32Z
TLE epoch observation values (Epoch: 2025-10-23T16:32:55.372Z)
Latitude
-0.00001°
Longitude
100.86121°
Altitude
1,383.73 km
Speed
7.12 km/s
True Right ascension
01h 25m 44s
True Declination
0° 00' 00"
Sunlit
Object was in full shadow at epoch
Visualization orbit readout
Latitude
Unknown
Longitude
Unknown
Altitude
Unknown
Speed
Unknown
Apparent Right ascension
Unknown
Apparent Declination
Unknown
Sunlit
N/A
Visualization observer readout
Local Sidereal Time
21:29:46
Azimuth
Unknown
Elevation
Unknown
Doppler factor
Unknown
Orbital elements
Apogee altitude
1,425.906 km
Perigee altitude
1,128.345 km
Semi-major axis
7,655.263 km
Eccentricity
0.01944
Inclination
101.736°
RAAN
21.4371°
Arg. of periapsis
226.3329°
True anomaly
133.77589°
Mean anomaly
132.1515°
Eccentric anomaly
132.96634°
Mean motion
3.24043 °/min
Orbital period
111.1 mins
BSTAR
0.0018765

Documentation

Showing up to 5 results
|